User: anonymous
Location: Nebula Knoll Observatory
(43.6666°N, 71.0000°W)
Time: 04:37:50
(UTC-04:00)
Language:

Cosmos 1782 - Orbit

View from above orbital plane
View from above orbital plane
View from above satellite
View from above satellite

Ground track
Ground track

The orbit data is extracted from the following two-line orbital elements,

1 16986U 86074A   14110.49756996  .00005037  00000-0  37631-3 0  7319
2 16986 082.5086 161.0706 0010761 320.7490 039.2954 15.02576728497311
Epoch (UTC): 20 April 2014 11:56:30
Eccentricity: 0.0010761
inclination: 82.5086°
perigee height: 551 km
apogee height: 566 km
right ascension of ascending node: 161.0706°
argument of perigee: 320.7490°
revolutions per day: 15.02576728
mean anomaly at epoch: 39.2954°
orbit number at epoch: 49731

The dashed part of the orbit path shows where the satellite is in the earth's shadow,  

DLR